TimeEDT,TemperatureF,Dew PointF,Humidity,Sea Level PressureIn,VisibilityMPH,Wind Direction,Wind SpeedMPH,Gust SpeedMPH,PrecipitationIn,Events,Conditions,WindDirDegrees,DateUTC
12:53 AM,75.0,64.0,69,29.99,10.0,SSW,6.9,-,N/A,,Clear,200,2013-09-11 04:53:00
1:53 AM,75.9,64.0,67,29.99,10.0,SSW,8.1,-,N/A,,Clear,200,2013-09-11 05:53:00
2:53 AM,75.9,64.0,67,29.99,10.0,SW,12.7,-,N/A,,Clear,220,2013-09-11 06:53:00
3:53 AM,75.9,64.9,69,29.99,10.0,SSW,9.2,-,N/A,,Clear,210,2013-09-11 07:53:00
4:53 AM,75.0,66.0,73,29.99,9.0,SW,12.7,-,N/A,,Clear,220,2013-09-11 08:53:00
5:53 AM,73.9,66.0,76,29.99,8.0,SW,10.4,-,N/A,,Partly Cloudy,220,2013-09-11 09:53:00
6:53 AM,73.9,66.9,79,30.00,8.0,SW,11.5,-,N/A,,Clear,220,2013-09-11 10:53:00
7:53 AM,73.9,66.9,79,30.01,6.0,SW,10.4,-,N/A,,Haze,230,2013-09-11 11:53:00
8:53 AM,77.0,68.0,74,30.02,7.0,WSW,10.4,-,N/A,,Clear,250,2013-09-11 12:53:00
9:53 AM,80.1,68.0,67,30.02,8.0,WSW,11.5,-,N/A,,Clear,250,2013-09-11 13:53:00
10:53 AM,82.0,68.0,62,30.02,9.0,WSW,11.5,-,N/A,,Clear,250,2013-09-11 14:53:00
11:53 AM,82.9,69.1,63,30.04,9.0,West,15.0,23.0,N/A,,Scattered Clouds,280,2013-09-11 15:53:00
12:53 PM,84.0,68.0,58,30.01,10.0,WSW,6.9,-,N/A,,Clear,240,2013-09-11 16:53:00
1:53 PM,84.0,66.0,55,29.99,10.0,SW,5.8,-,N/A,,Clear,230,2013-09-11 17:53:00
2:53 PM,84.9,66.0,53,29.99,10.0,West,9.2,-,N/A,,Clear,260,2013-09-11 18:53:00
3:53 PM,86.0,68.0,55,29.98,10.0,West,9.2,-,N/A,,Clear,260,2013-09-11 19:53:00
4:53 PM,82.9,66.0,56,29.96,10.0,NW,13.8,19.6,N/A,,Partly Cloudy,310,2013-09-11 20:53:00
5:53 PM,75.9,64.0,67,29.98,10.0,WNW,16.1,26.5,0.00,Rain,Light Rain,300,2013-09-11 21:53:00
6:53 PM,73.0,64.0,73,29.99,10.0,WSW,8.1,-,0.00,,Partly Cloudy,240,2013-09-11 22:53:00
7:53 PM,72.0,64.9,78,29.98,10.0,SW,8.1,-,N/A,,Partly Cloudy,220,2013-09-11 23:53:00
8:53 PM,71.1,64.0,78,29.99,10.0,West,5.8,-,N/A,,Clear,260,2013-09-12 00:53:00
9:53 PM,71.1,64.0,78,29.99,10.0,WSW,4.6,-,N/A,,Scattered Clouds,250,2013-09-12 01:53:00
10:53 PM,69.1,64.9,87,29.98,10.0,West,3.5,-,N/A,,Partly Cloudy,260,2013-09-12 02:53:00
11:53 PM,70.0,64.9,84,29.97,10.0,SW,5.8,-,N/A,,Overcast,220,2013-09-12 03:53:00